View from above orbital plane
|
View from above satellite
|
Ground track
|
The orbit data is extracted from the following two-line orbital elements,
1 10489U 77108A 21015.69486984 -.00000358 00000-0 00000-0 0 9995
2 10489 9.8943 304.7443 0013569 38.5559 142.4903 1.00334399117375
Epoch (UTC): | 15 January 2021 16:40:36 |
Eccentricity: | 0.0013569 |
inclination: | 9.8943° |
perigee height: | 35711 km |
apogee height: | 35826 km |
right ascension of ascending node: | 304.7443° |
argument of perigee: | 38.5559° |
revolutions per day: | 1.00334399 |
mean anomaly at epoch: | 142.4903° |
orbit number at epoch: | 11737 |
The dashed part of the orbit path shows where the satellite is in the earth's shadow,
|
|